{"data":{"norad_id":66979,"epoch":"2026-09-20T08:24:54.930528Z","epoch_age_seconds":94157,"freshness":"FRESH","line1":"1 66979U 25288W   26263.35063577  .00015792  00000+0  58197-3 0  9993","line2":"2 66979  43.0039   4.5056 0001743 276.3823  83.6830 15.27590554 45059","mean_motion":15.27590554,"eccentricity":0.0001743,"inclination_deg":43.0039,"raan_deg":4.5056,"arg_perigee_deg":276.3823,"mean_anomaly_deg":83.683,"bstar":0.00058197,"rev_number":4505,"period_min":94.266097432284,"perigee_km":481.82159452056,"apogee_km":484.21339297708,"semimajor_km":6861.1544937488,"source":"CELESTRAK","updated_at":"2026-09-21T09:00:36.066115Z"}}